START_TIME,STEP,MOV.,M15,t_acc.,M20,t_acc.
1979-08-07 09:00:42.400 ,0,0,0.,24.0,0.,24.0
1979-08-07 09:01:06.400 ,0,1,0.,24.0,0.,24.0
1979-08-07 09:01:30.400 ,0,0,0.,24.0,0.,24.0
1979-08-07 09:01:54.400 ,1,1,0.,24.0,0.,24.0
1979-08-07 09:02:18.400 ,1,0,0.,24.0,0.,24.0
1979-08-07 09:03:06.400 ,2,0,0.,24.0,0.,24.0
1979-08-07 09:03:30.400 ,3,1,0.,24.0,0.,24.0
1979-08-07 09:03:54.400 ,3,0,0.,24.0,0.,24.0
1979-08-07 09:04:18.400 ,4,1,0.,24.0,0.,24.0
1979-08-07 09:04:42.400 ,4,0,0.,24.0,0.,24.0
1979-08-07 09:05:06.400 ,5,1,0.,24.0,0.,24.0
1979-08-07 09:05:30.400 ,5,0,0.,24.0,0.,24.0
1979-08-07 09:05:54.400 ,6,1,0.,24.0,0.,24.0
1979-08-07 09:06:18.400 ,6,0,0.,24.0,0.,24.0
1979-08-07 09:06:42.400 ,7,0,0.,24.0,0.,24.0
1979-08-07 09:07:06.400 ,7,0,0.,24.0,0.,24.0
1979-08-07 09:07:30.400 ,3,1,0.,24.0,0.,24.0
1979-08-07 09:07:54.400 ,0,1,0.,24.0,0.,24.0
1979-08-07 09:08:18.400 ,4,1,0.,24.0,0.,24.0
1979-08-07 09:08:42.400 ,7,1,0.,24.0,0.,24.0
1979-08-07 09:09:06.400 ,3,1,0.,24.0,0.,24.0
1979-08-07 09:09:30.400 ,0,1,0.,24.0,0.,24.0
1979-08-07 09:09:54.400 ,4,1,0.,24.0,0.,24.0
1979-08-07 09:10:18.400 ,7,1,0.,24.0,0.,24.0
1979-08-07 09:10:42.400 ,3,1,0.,24.0,0.,24.0
1979-08-07 09:11:06.400 ,0,1,0.,24.0,0.,24.0
1979-08-07 09:11:30.400 ,4,1,0.,24.0,0.,24.0
1979-08-07 09:11:54.400 ,7,1,0.,24.0,0.,24.0
1979-08-07 09:12:18.400 ,3,1,0.,24.0,0.,24.0
1979-08-07 09:12:42.400 ,0,1,0.,24.0,0.,24.0
1979-08-07 09:13:06.400 ,4,1,0.,24.0,0.,24.0
1979-08-07 09:13:30.400 ,7,1,0.,24.0,0.,24.0
1979-08-07 09:13:54.400 ,3,1,0.,24.0,0.,24.0
1979-08-07 09:14:18.400 ,0,1,0.,24.0,0.,24.0
1979-08-07 09:14:42.400 ,4,1,0.,24.0,0.,24.0
1979-08-07 09:15:06.400 ,7,1,0.,24.0,0.,24.0
1979-08-07 09:15:30.400 ,3,1,0.,24.0,0.,24.0
1979-08-07 09:15:54.400 ,0,1,0.,24.0,0.,24.0
1979-08-07 09:16:18.400 ,4,1,0.,24.0,0.,24.0
1979-08-07 09:16:42.400 ,7,1,0.,24.0,0.,24.0
1979-08-07 09:17:06.400 ,3,1,0.,24.0,0.,24.0
1979-08-07 09:17:30.400 ,0,1,0.,24.0,0.,24.0
1979-08-07 09:17:54.400 ,0,0,0.,24.0,0.,24.0
1979-08-07 09:18:18.400 ,0,0,0.,24.0,0.,24.0
1979-08-07 09:18:42.400 ,5,1,0.,24.0,0.,24.0
1979-08-07 09:19:06.400 ,5,0,0.,24.0,0.,24.0
1979-08-07 09:19:30.400 ,4,1,0.,24.0,0.,24.0
1979-08-07 09:19:54.400 ,4,0,0.,24.0,0.,24.0
1979-08-07 09:20:18.400 ,3,1,0.,24.0,0.,24.0
1979-08-07 09:20:42.400 ,3,0,0.,24.0,0.,24.0
1979-08-07 09:21:06.400 ,2,1,0.,24.0,0.,24.0
1979-08-07 09:21:30.400 ,2,0,0.,24.0,0.,24.0
1979-08-07 09:21:54.400 ,1,1,0.,24.0,0.,24.0
1979-08-07 09:22:18.400 ,1,0,0.,24.0,0.,24.0
1979-08-07 09:22:42.400 ,0,1,0.,24.0,0.,24.0
1979-08-07 09:23:06.400 ,0,0,0.,24.0,0.,24.0
1979-08-07 09:23:30.400 ,0,1,0.,24.0,0.,24.0
1979-08-07 09:23:54.400 ,0,0,0.,24.0,0.,24.0
1979-08-07 09:24:18.400 ,1,1,0.,24.0,0.,24.0
1979-08-07 09:24:42.400 ,1,0,0.,24.0,0.,24.0
1979-08-07 09:25:06.400 ,2,1,0.,24.0,0.,24.0
1979-08-07 09:25:30.400 ,2,0,0.,24.0,0.,24.0
1979-08-07 09:25:54.400 ,3,1,0.,24.0,0.,24.0
1979-08-07 09:26:18.400 ,3,0,0.,24.0,0.,24.0
1979-08-07 09:26:42.400 ,4,1,0.,24.0,0.,24.0
1979-08-07 09:27:06.400 ,4,0,0.,24.0,0.,24.0
1979-08-07 09:27:30.400 ,5,1,0.,24.0,0.,24.0
1979-08-07 09:27:54.400 ,5,0,0.,24.0,0.,24.0
1979-08-07 09:28:18.400 ,6,1,0.,24.0,0.,24.0
1979-08-07 09:28:42.400 ,6,0,0.,24.0,0.,24.0
1979-08-07 09:29:06.400 ,7,1,0.,24.0,0.,24.0
1979-08-07 09:29:30.400 ,7,0,0.,24.0,0.,24.0
1979-08-07 09:29:54.400 ,7,1,0.,24.0,0.,24.0
1979-08-07 09:30:18.400 ,7,0,0.,24.0,0.,24.0
1979-08-07 09:30:42.400 ,6,1,0.,24.0,0.,24.0
1979-08-07 09:31:06.400 ,6,0,0.,24.0,0.,24.0
1979-08-07 09:31:30.400 ,5,1,0.,24.0,0.,24.0
1979-08-07 09:31:54.400 ,5,0,0.,24.0,0.,24.0
1979-08-07 09:32:18.400 ,4,1,0.,24.0,0.,24.0
1979-08-07 09:32:42.400 ,4,0,0.,24.0,0.,24.0
1979-08-07 09:33:06.400 ,3,1,0.,24.0,0.,24.0
1979-08-07 09:33:30.400 ,3,0,0.,24.0,0.,24.0
1979-08-07 09:33:54.400 ,2,1,0.,24.0,0.,24.0
1979-08-07 09:34:18.400 ,2,0,0.,24.0,0.,24.0
1979-08-07 09:34:42.400 ,1,1,0.,24.0,0.,24.0
1979-08-07 09:35:06.400 ,1,0,0.,24.0,0.,24.0
1979-08-07 09:35:30.400 ,0,1,0.,24.0,0.,24.0
1979-08-07 09:35:54.400 ,0,0,0.,24.0,0.,24.0
1979-08-07 09:36:18.400 ,0,1,0.,24.0,0.,24.0
1979-08-07 09:36:42.400 ,0,0,0.,24.0,0.,24.0
1979-08-07 09:37:06.400 ,1,1,0.,24.0,0.,24.0
1979-08-07 09:37:30.400 ,1,0,0.,24.0,0.,24.0
1979-08-07 09:37:54.400 ,2,1,0.,24.0,0.,24.0
1979-08-07 09:38:18.400 ,2,0,0.,24.0,0.,24.0
1979-08-07 09:38:42.400 ,3,1,0.,24.0,0.,24.0
1979-08-07 09:39:06.400 ,3,0,0.,24.0,0.,24.0
1979-08-07 09:39:30.400 ,4,1,0.,24.0,0.,24.0
1979-08-07 09:39:54.400 ,4,0,0.,24.0,0.,24.0
1979-08-07 09:40:18.400 ,5,1,0.,24.0,0.,24.0
1979-08-07 09:40:42.400 ,5,0,0.,24.0,0.,24.0
1979-08-07 09:41:06.400 ,6,1,0.,24.0,0.,24.0
1979-08-07 09:41:30.400 ,6,0,0.,24.0,0.,24.0
1979-08-07 09:41:54.400 ,7,1,0.,24.0,0.,24.0
1979-08-07 09:42:18.400 ,7,0,0.,24.0,0.,24.0
1979-08-07 09:42:42.400 ,7,1,0.,24.0,0.,24.0
1979-08-07 09:43:06.400 ,7,0,0.,24.0,0.,24.0
1979-08-07 09:43:30.400 ,6,1,0.,24.0,0.,24.0
1979-08-07 09:43:54.400 ,6,0,0.,24.0,0.,24.0
1979-08-07 09:44:18.400 ,5,1,0.,24.0,0.,24.0
1979-08-07 09:44:42.400 ,5,0,0.,24.0,0.,24.0
1979-08-07 09:45:06.400 ,4,1,0.,24.0,0.,24.0
1979-08-07 09:45:30.400 ,4,0,0.,24.0,0.,24.0
1979-08-07 09:45:54.400 ,3,1,0.,24.0,0.,24.0
1979-08-07 09:46:18.400 ,3,0,0.,24.0,0.,24.0
1979-08-07 09:46:42.400 ,2,1,0.,24.0,0.,24.0
1979-08-07 09:47:06.400 ,2,0,0.,24.0,0.,24.0
1979-08-07 09:47:30.400 ,1,1,0.,24.0,0.,24.0
1979-08-07 09:47:54.400 ,1,0,0.,24.0,1.,24.0
1979-08-07 09:48:18.400 ,0,1,0.,24.0,0.,24.0
1979-08-07 09:48:42.400 ,0,0,0.,24.0,0.,24.0
1979-08-07 09:49:06.400 ,0,1,0.,24.0,0.,24.0
1979-08-07 09:49:30.400 ,0,0,0.,24.0,0.,24.0
1979-08-07 09:49:54.400 ,1,1,0.,24.0,0.,24.0
1979-08-07 09:50:18.400 ,1,0,0.,24.0,0.,24.0
1979-08-07 09:50:42.400 ,2,1,0.,24.0,0.,24.0
1979-08-07 09:51:06.400 ,2,0,0.,24.0,0.,24.0
1979-08-07 09:51:30.400 ,3,1,0.,24.0,0.,24.0
1979-08-07 09:51:54.400 ,3,0,0.,24.0,0.,24.0
1979-08-07 09:52:18.400 ,4,1,0.,24.0,0.,24.0
1979-08-07 09:52:42.400 ,4,0,0.,24.0,0.,24.0
1979-08-07 09:53:06.400 ,5,1,0.,24.0,0.,24.0
1979-08-07 09:53:30.400 ,5,0,0.,24.0,0.,24.0
1979-08-07 09:53:54.400 ,6,1,0.,24.0,0.,24.0
1979-08-07 09:54:18.400 ,6,0,0.,24.0,0.,24.0
1979-08-07 09:54:42.400 ,7,0,0.,24.0,0.,24.0
1979-08-07 09:55:06.400 ,7,0,0.,24.0,0.,24.0
1979-08-07 09:55:30.400 ,3,1,0.,24.0,0.,24.0
1979-08-07 09:55:54.400 ,0,1,0.,24.0,0.,24.0
1979-08-07 09:56:18.400 ,4,1,0.,24.0,0.,24.0
1979-08-07 09:56:42.400 ,7,1,0.,24.0,0.,24.0
1979-08-07 09:57:06.400 ,3,1,0.,24.0,0.,24.0
1979-08-07 09:57:30.400 ,0,1,0.,24.0,0.,24.0
1979-08-07 09:57:54.400 ,4,1,0.,24.0,0.,24.0
1979-08-07 09:58:18.400 ,7,1,0.,24.0,0.,24.0
1979-08-07 09:58:42.400 ,3,1,0.,24.0,0.,24.0
1979-08-07 09:59:06.400 ,0,1,0.,24.0,0.,24.0
1979-08-07 09:59:30.400 ,4,1,0.,24.0,0.,24.0
1979-08-07 09:59:54.400 ,7,1,0.,24.0,0.,24.0
1979-08-07 10:00:18.400 ,3,1,0.,24.0,0.,24.0
1979-08-07 10:00:42.400 ,0,1,0.,24.0,0.,24.0
1979-08-07 10:01:06.400 ,4,1,0.,24.0,0.,24.0
1979-08-07 10:01:30.400 ,7,1,0.,24.0,0.,24.0
1979-08-07 10:01:54.400 ,3,1,0.,24.0,0.,24.0
1979-08-07 10:02:18.400 ,0,1,0.,24.0,0.,24.0
1979-08-07 10:02:42.400 ,4,1,1.,24.0,0.,24.0
1979-08-07 10:03:06.400 ,7,1,0.,24.0,0.,24.0
1979-08-07 10:03:30.400 ,3,1,0.,24.0,0.,24.0
1979-08-07 10:03:54.400 ,0,1,0.,24.0,0.,24.0
1979-08-07 10:04:18.400 ,4,1,0.,24.0,0.,24.0
1979-08-07 10:04:42.400 ,7,1,0.,24.0,0.,24.0
1979-08-07 10:05:06.400 ,3,1,0.,24.0,0.,24.0
1979-08-07 10:05:30.400 ,0,1,0.,24.0,0.,24.0
1979-08-07 10:05:54.400 ,0,0,0.,24.0,0.,24.0
1979-08-07 10:06:18.400 ,0,0,0.,24.0,0.,24.0
1979-08-07 10:06:42.400 ,5,1,0.,24.0,0.,24.0
1979-08-07 10:07:06.400 ,5,0,0.,24.0,0.,24.0
1979-08-07 10:07:30.400 ,4,1,0.,24.0,0.,24.0
1979-08-07 10:07:54.400 ,4,0,0.,24.0,0.,24.0
1979-08-07 10:08:18.400 ,3,1,0.,24.0,0.,24.0
1979-08-07 10:08:42.400 ,3,0,0.,24.0,0.,24.0
1979-08-07 10:09:06.400 ,2,1,0.,24.0,0.,24.0
1979-08-07 10:09:30.400 ,2,0,0.,24.0,0.,24.0
1979-08-07 10:09:54.400 ,1,1,0.,24.0,0.,24.0
1979-08-07 10:10:18.400 ,1,0,0.,24.0,0.,24.0
1979-08-07 10:10:42.400 ,0,1,0.,24.0,0.,24.0
1979-08-07 10:11:06.400 ,0,0,0.,24.0,0.,24.0
1979-08-07 10:11:30.400 ,0,1,0.,24.0,0.,24.0
1979-08-07 10:11:54.400 ,0,0,0.,24.0,0.,24.0
1979-08-07 10:12:18.400 ,1,1,0.,24.0,0.,24.0
1979-08-07 10:12:42.400 ,1,0,0.,24.0,0.,24.0
1979-08-07 10:13:06.400 ,2,1,0.,24.0,0.,24.0
1979-08-07 10:13:30.400 ,2,0,0.,24.0,0.,24.0
1979-08-07 10:13:54.400 ,3,1,1.,24.0,0.,24.0
1979-08-07 10:14:18.400 ,3,0,0.,24.0,0.,24.0
1979-08-07 10:14:42.400 ,4,1,0.,24.0,0.,24.0
1979-08-07 10:15:06.400 ,4,0,0.,24.0,0.,24.0
1979-08-07 10:15:30.400 ,5,1,0.,24.0,0.,24.0
1979-08-07 10:15:54.400 ,5,0,0.,24.0,0.,24.0
1979-08-07 10:16:18.400 ,6,1,0.,24.0,0.,24.0
1979-08-07 10:16:42.400 ,6,0,0.,24.0,0.,24.0
1979-08-07 10:17:06.400 ,7,1,0.,24.0,0.,24.0
1979-08-07 10:17:30.400 ,7,0,0.,24.0,0.,24.0
1979-08-07 10:17:54.400 ,7,1,0.,24.0,0.,24.0
1979-08-07 10:18:18.400 ,7,0,0.,24.0,0.,24.0
1979-08-07 10:18:42.400 ,6,1,0.,24.0,0.,24.0
1979-08-07 10:19:06.400 ,6,0,0.,24.0,0.,24.0
1979-08-07 10:19:30.400 ,5,1,0.,24.0,0.,24.0
1979-08-07 10:19:54.400 ,5,0,0.,24.0,0.,24.0
1979-08-07 10:20:18.400 ,4,1,0.,24.0,0.,24.0
1979-08-07 10:20:42.400 ,4,0,0.,24.0,0.,24.0
1979-08-07 10:21:06.400 ,3,1,0.,24.0,0.,24.0
1979-08-07 10:21:30.400 ,3,0,0.,24.0,0.,24.0
1979-08-07 10:21:54.400 ,2,1,0.,24.0,0.,24.0
1979-08-07 10:22:18.400 ,2,0,0.,24.0,0.,24.0
1979-08-07 10:22:42.400 ,1,1,0.,24.0,0.,24.0
1979-08-07 10:23:06.400 ,1,0,0.,24.0,0.,24.0
1979-08-07 10:23:30.400 ,0,1,0.,24.0,0.,24.0
1979-08-07 10:23:54.400 ,0,0,0.,24.0,0.,24.0
1979-08-07 10:24:18.400 ,0,1,0.,24.0,0.,24.0
1979-08-07 10:24:42.400 ,0,0,0.,24.0,0.,24.0
1979-08-07 10:25:06.400 ,1,1,0.,24.0,0.,24.0
1979-08-07 10:25:30.400 ,1,0,0.,24.0,0.,24.0
1979-08-07 10:25:54.400 ,2,1,0.,24.0,0.,24.0
1979-08-07 10:26:18.400 ,2,0,0.,24.0,0.,24.0
1979-08-07 10:26:42.400 ,3,1,0.,24.0,0.,24.0
1979-08-07 10:27:06.400 ,3,0,0.,24.0,0.,24.0
1979-08-07 10:27:30.400 ,4,1,0.,24.0,0.,24.0
1979-08-07 10:27:54.400 ,4,0,0.,24.0,0.,24.0
1979-08-07 10:28:18.400 ,5,1,1.,24.0,0.,24.0
1979-08-07 10:28:42.400 ,5,0,0.,24.0,0.,24.0
1979-08-07 10:29:06.400 ,6,1,0.,24.0,0.,24.0
1979-08-07 10:29:30.400 ,6,0,0.,24.0,0.,24.0
1979-08-07 10:29:54.400 ,7,1,0.,24.0,0.,24.0
1979-08-07 10:30:18.400 ,7,0,0.,24.0,0.,24.0
1979-08-07 10:30:42.400 ,7,1,0.,24.0,0.,24.0
1979-08-07 10:31:06.400 ,7,0,0.,24.0,0.,24.0
1979-08-07 10:31:30.400 ,6,1,0.,24.0,0.,24.0
1979-08-07 10:31:54.400 ,6,0,0.,24.0,0.,24.0
1979-08-07 10:32:18.400 ,5,1,0.,24.0,0.,24.0
1979-08-07 10:32:42.400 ,5,0,0.,24.0,0.,24.0
1979-08-07 10:33:06.400 ,4,1,0.,24.0,0.,24.0
1979-08-07 10:33:30.400 ,4,0,0.,24.0,0.,24.0
1979-08-07 10:33:54.400 ,3,1,0.,24.0,0.,24.0
1979-08-07 10:34:18.400 ,3,0,0.,24.0,0.,24.0
1979-08-07 10:34:42.400 ,2,1,0.,24.0,0.,24.0
1979-08-07 10:35:06.400 ,2,0,0.,24.0,0.,24.0
1979-08-07 10:35:30.400 ,1,1,0.,24.0,0.,24.0
1979-08-07 10:35:54.400 ,1,0,0.,24.0,0.,24.0
1979-08-07 10:36:18.400 ,0,1,0.,24.0,0.,24.0
1979-08-07 10:36:42.400 ,0,0,0.,24.0,0.,24.0
1979-08-07 10:37:06.400 ,0,1,0.,24.0,0.,24.0
1979-08-07 10:37:30.400 ,0,0,0.,24.0,0.,24.0
1979-08-07 10:37:54.400 ,1,1,0.,24.0,0.,24.0
1979-08-07 10:38:18.400 ,1,0,0.,24.0,0.,24.0
1979-08-07 10:38:42.400 ,2,1,0.,24.0,0.,24.0
1979-08-07 10:39:06.400 ,2,0,0.,24.0,0.,24.0
1979-08-07 10:39:30.400 ,3,1,0.,24.0,0.,24.0
1979-08-07 10:39:54.400 ,3,0,0.,24.0,0.,24.0
1979-08-07 10:40:18.400 ,4,1,0.,24.0,0.,24.0
1979-08-07 10:40:42.400 ,4,0,0.,24.0,0.,24.0
1979-08-07 10:41:06.400 ,5,1,0.,24.0,0.,24.0
1979-08-07 10:41:30.400 ,5,0,0.,24.0,0.,24.0
1979-08-07 10:41:54.400 ,6,1,0.,24.0,0.,24.0
1979-08-07 10:42:18.400 ,6,0,0.,24.0,0.,24.0
1979-08-07 10:42:42.400 ,7,0,0.,24.0,0.,24.0
1979-08-07 10:43:06.400 ,7,0,0.,24.0,0.,24.0
1979-08-07 10:43:30.400 ,3,1,0.,24.0,0.,24.0
1979-08-07 10:43:54.400 ,0,1,0.,24.0,0.,24.0
1979-08-07 10:44:18.400 ,4,1,0.,24.0,0.,24.0
1979-08-07 10:44:42.400 ,7,1,2.,24.0,0.,24.0
1979-08-07 10:45:06.400 ,3,1,0.,24.0,0.,24.0
1979-08-07 10:45:30.400 ,0,1,0.,24.0,0.,24.0
1979-08-07 10:45:54.400 ,4,1,0.,24.0,0.,24.0
1979-08-07 10:46:18.400 ,7,1,0.,24.0,0.,24.0
1979-08-07 10:46:42.400 ,3,1,0.,24.0,0.,24.0
1979-08-07 10:47:06.400 ,0,1,0.,24.0,0.,24.0
1979-08-07 10:47:30.400 ,4,1,0.,24.0,0.,24.0
1979-08-07 10:47:54.400 ,7,1,0.,24.0,0.,24.0
1979-08-07 10:48:18.400 ,3,1,0.,24.0,0.,24.0
1979-08-07 10:48:42.400 ,0,1,0.,24.0,0.,24.0
1979-08-07 10:49:06.400 ,4,1,0.,24.0,0.,24.0
1979-08-07 10:49:30.400 ,7,1,0.,24.0,0.,24.0
1979-08-07 10:49:54.400 ,3,1,0.,24.0,0.,24.0
1979-08-07 10:50:18.400 ,0,1,0.,24.0,0.,24.0
1979-08-07 10:50:42.400 ,4,1,0.,24.0,0.,24.0
1979-08-07 10:51:06.400 ,7,1,0.,24.0,0.,24.0
1979-08-07 10:51:30.400 ,3,1,0.,24.0,0.,24.0
1979-08-07 10:51:54.400 ,0,1,0.,24.0,0.,24.0
1979-08-07 10:52:18.400 ,4,1,0.,24.0,0.,24.0
1979-08-07 10:52:42.400 ,7,1,0.,24.0,0.,24.0
1979-08-07 10:53:06.400 ,3,1,0.,24.0,0.,24.0
1979-08-07 10:53:30.400 ,0,1,0.,24.0,0.,24.0
1979-08-07 10:53:54.400 ,0,0,0.,24.0,0.,24.0
1979-08-07 10:54:18.400 ,0,0,0.,24.0,0.,24.0
1979-08-07 10:54:42.400 ,5,1,0.,24.0,0.,24.0
1979-08-07 10:55:06.400 ,5,0,0.,24.0,0.,24.0
1979-08-07 10:55:30.400 ,4,1,0.,24.0,0.,24.0
1979-08-07 10:55:54.400 ,4,0,0.,24.0,0.,24.0
1979-08-07 10:56:18.400 ,3,1,0.,24.0,0.,24.0
1979-08-07 10:56:42.400 ,3,0,0.,24.0,0.,24.0
1979-08-07 10:57:06.400 ,2,1,0.,24.0,0.,24.0
1979-08-07 10:57:30.400 ,2,0,0.,24.0,0.,24.0
1979-08-07 10:57:54.400 ,1,1,0.,24.0,0.,24.0
1979-08-07 10:58:18.400 ,1,0,0.,24.0,0.,24.0
1979-08-07 10:58:42.400 ,0,1,0.,24.0,0.,24.0
1979-08-07 10:59:06.400 ,0,0,0.,24.0,0.,24.0
1979-08-07 10:59:30.400 ,0,1,0.,24.0,0.,24.0
1979-08-07 10:59:54.400 ,0,0,0.,24.0,0.,24.0
1979-08-07 11:00:18.400 ,1,1,0.,24.0,0.,24.0
1979-08-07 11:00:42.400 ,1,0,0.,24.0,0.,24.0
1979-08-07 11:01:06.400 ,2,1,0.,24.0,0.,24.0
1979-08-07 11:01:30.400 ,2,0,0.,24.0,0.,24.0
1979-08-07 11:01:54.400 ,3,1,0.,24.0,0.,24.0
1979-08-07 11:02:18.400 ,3,0,0.,24.0,0.,24.0
1979-08-07 11:02:42.400 ,4,1,0.,24.0,0.,24.0
1979-08-07 11:03:06.400 ,4,0,0.,24.0,0.,24.0
1979-08-07 11:03:30.400 ,5,1,0.,24.0,0.,24.0
1979-08-07 11:03:54.400 ,5,0,0.,24.0,0.,24.0
1979-08-07 11:04:18.400 ,6,1,0.,24.0,0.,24.0
1979-08-07 11:04:42.400 ,6,0,0.,24.0,0.,24.0
1979-08-07 11:05:06.400 ,7,1,0.,24.0,0.,24.0
1979-08-07 11:05:30.400 ,7,0,0.,24.0,0.,24.0
1979-08-07 11:05:54.400 ,7,1,0.,24.0,0.,24.0
1979-08-07 11:06:18.400 ,7,0,0.,24.0,0.,24.0
1979-08-07 11:06:42.400 ,6,1,0.,24.0,0.,24.0
1979-08-07 11:07:06.400 ,6,0,0.,24.0,0.,24.0
1979-08-07 11:07:30.400 ,5,1,0.,24.0,0.,24.0
1979-08-07 11:07:54.400 ,5,0,0.,24.0,0.,24.0
1979-08-07 11:08:18.400 ,4,1,0.,24.0,0.,24.0
1979-08-07 11:08:42.400 ,4,0,0.,24.0,0.,24.0
1979-08-07 11:09:06.400 ,3,1,0.,24.0,0.,24.0
1979-08-07 11:09:30.400 ,3,0,0.,24.0,0.,24.0
1979-08-07 11:09:54.400 ,2,1,0.,24.0,0.,24.0
1979-08-07 11:10:18.400 ,2,0,0.,24.0,0.,24.0
1979-08-07 11:10:42.400 ,1,1,0.,24.0,0.,24.0
1979-08-07 11:11:06.400 ,1,0,0.,24.0,0.,24.0
1979-08-07 11:11:30.400 ,0,1,0.,24.0,0.,24.0
1979-08-07 11:11:54.400 ,0,0,0.,24.0,0.,24.0
1979-08-07 11:12:18.400 ,0,1,0.,24.0,0.,24.0
1979-08-07 11:12:42.400 ,0,0,0.,24.0,0.,24.0
1979-08-07 11:13:06.400 ,1,1,0.,24.0,0.,24.0
1979-08-07 11:13:30.400 ,1,0,0.,24.0,0.,24.0
1979-08-07 11:13:54.400 ,2,1,0.,24.0,0.,24.0
1979-08-07 11:14:18.400 ,2,0,0.,24.0,0.,24.0
1979-08-07 11:14:42.400 ,3,1,0.,24.0,0.,24.0
1979-08-07 11:15:06.400 ,3,0,0.,24.0,0.,24.0
1979-08-07 11:15:30.400 ,4,1,0.,24.0,0.,24.0
1979-08-07 11:15:54.400 ,4,0,0.,24.0,0.,24.0
1979-08-07 11:16:18.400 ,5,1,0.,24.0,0.,24.0
1979-08-07 11:16:42.400 ,5,0,0.,24.0,0.,24.0
1979-08-07 11:17:06.400 ,6,1,0.,24.0,0.,24.0
1979-08-07 11:17:30.400 ,6,0,0.,24.0,0.,24.0
1979-08-07 11:17:54.400 ,7,1,0.,24.0,0.,24.0
1979-08-07 11:18:18.400 ,7,0,0.,24.0,0.,24.0
1979-08-07 11:18:42.400 ,7,1,0.,24.0,0.,24.0
1979-08-07 11:19:06.400 ,7,0,0.,24.0,0.,24.0
1979-08-07 11:19:30.400 ,6,1,1.,24.0,0.,24.0
1979-08-07 11:19:54.400 ,6,0,0.,24.0,0.,24.0
1979-08-07 11:20:18.400 ,5,1,0.,24.0,0.,24.0
1979-08-07 11:20:42.400 ,5,0,0.,24.0,0.,24.0
1979-08-07 11:21:06.400 ,4,1,0.,24.0,0.,24.0
1979-08-07 11:21:30.400 ,4,0,0.,24.0,0.,24.0
1979-08-07 11:21:54.400 ,3,1,0.,24.0,0.,24.0
1979-08-07 11:22:18.400 ,3,0,0.,24.0,0.,24.0
1979-08-07 11:22:42.400 ,2,1,0.,24.0,0.,24.0
1979-08-07 11:23:06.400 ,2,0,0.,24.0,0.,24.0
1979-08-07 11:23:30.400 ,1,1,0.,24.0,0.,24.0
1979-08-07 11:23:54.400 ,1,0,0.,24.0,0.,24.0
1979-08-07 11:24:18.400 ,0,1,0.,24.0,0.,24.0
1979-08-07 11:24:42.400 ,0,0,0.,24.0,0.,24.0
1979-08-07 11:25:06.400 ,0,1,0.,24.0,0.,24.0
1979-08-07 11:25:30.400 ,0,0,0.,24.0,0.,24.0
1979-08-07 11:25:54.400 ,1,1,0.,24.0,0.,24.0
1979-08-07 11:26:18.400 ,1,0,0.,24.0,0.,24.0
1979-08-07 11:26:42.400 ,2,1,0.,24.0,0.,24.0
1979-08-07 11:27:06.400 ,2,0,0.,24.0,0.,24.0
1979-08-07 11:27:30.400 ,3,1,0.,24.0,0.,24.0
1979-08-07 11:27:54.400 ,3,0,0.,24.0,0.,24.0
1979-08-07 11:28:18.400 ,4,1,0.,24.0,0.,24.0
1979-08-07 11:28:42.400 ,4,0,0.,24.0,0.,24.0
1979-08-07 11:29:06.400 ,5,1,0.,24.0,0.,24.0
1979-08-07 11:29:30.400 ,5,0,0.,24.0,0.,24.0
1979-08-07 11:29:54.400 ,6,1,0.,24.0,0.,24.0
1979-08-07 11:30:18.400 ,6,0,0.,24.0,0.,24.0
1979-08-07 11:30:42.400 ,7,0,0.,24.0,0.,24.0
1979-08-07 11:31:06.400 ,7,0,0.,24.0,0.,24.0
1979-08-07 11:31:30.400 ,3,1,0.,24.0,0.,24.0
1979-08-07 11:31:54.400 ,0,1,0.,24.0,0.,24.0
1979-08-07 11:32:18.400 ,4,1,0.,24.0,0.,24.0
1979-08-07 11:32:42.400 ,7,1,0.,24.0,0.,24.0
1979-08-07 11:33:06.400 ,3,1,0.,24.0,0.,24.0
1979-08-07 11:33:30.400 ,0,1,0.,24.0,0.,24.0
1979-08-07 11:33:54.390 ,4,1,0.,24.0,0.,24.0
1979-08-07 11:34:18.390 ,7,1,0.,24.0,0.,24.0
1979-08-07 11:34:42.390 ,3,1,0.,24.0,0.,24.0
1979-08-07 11:35:06.390 ,0,1,0.,24.0,0.,24.0
1979-08-07 11:35:30.390 ,4,1,0.,24.0,0.,24.0
1979-08-07 11:35:54.390 ,7,1,0.,24.0,0.,24.0
1979-08-07 11:36:18.390 ,3,1,0.,24.0,0.,24.0
1979-08-07 11:36:42.390 ,0,1,0.,24.0,0.,24.0
1979-08-07 11:37:06.390 ,4,1,0.,24.0,0.,24.0
1979-08-07 11:37:30.390 ,7,1,0.,24.0,0.,24.0
1979-08-07 11:37:54.390 ,3,1,0.,24.0,0.,24.0
1979-08-07 11:38:18.390 ,0,1,0.,24.0,0.,24.0
1979-08-07 11:38:42.390 ,4,1,0.,24.0,0.,24.0
1979-08-07 11:39:06.390 ,7,1,0.,24.0,0.,24.0
1979-08-07 11:39:30.390 ,3,1,0.,24.0,0.,24.0
1979-08-07 11:39:54.390 ,0,1,0.,24.0,0.,24.0
1979-08-07 11:40:18.390 ,4,1,0.,24.0,0.,24.0
1979-08-07 11:40:42.390 ,7,1,0.,24.0,0.,24.0
1979-08-07 11:41:06.390 ,3,1,0.,24.0,0.,24.0
1979-08-07 11:41:30.390 ,0,1,0.,24.0,0.,24.0
1979-08-07 11:41:54.390 ,0,0,0.,24.0,0.,24.0
1979-08-07 11:42:18.390 ,0,0,0.,24.0,0.,24.0
1979-08-07 11:42:42.390 ,5,1,0.,24.0,0.,24.0
1979-08-07 11:43:06.390 ,5,0,0.,24.0,0.,24.0
1979-08-07 11:43:30.390 ,4,1,0.,24.0,0.,24.0
1979-08-07 11:43:54.390 ,4,0,0.,24.0,0.,24.0
1979-08-07 11:44:18.390 ,3,1,0.,24.0,0.,24.0
1979-08-07 11:44:42.390 ,3,0,0.,24.0,0.,24.0
1979-08-07 11:45:06.390 ,2,1,0.,24.0,0.,24.0
1979-08-07 11:45:30.390 ,2,0,0.,24.0,0.,24.0
1979-08-07 11:45:54.390 ,1,1,0.,24.0,0.,24.0
1979-08-07 11:46:18.390 ,1,0,0.,24.0,0.,24.0
1979-08-07 11:46:42.390 ,0,1,0.,24.0,0.,24.0
1979-08-07 11:47:06.390 ,0,0,0.,24.0,0.,24.0
1979-08-07 11:47:30.390 ,0,1,0.,24.0,0.,24.0
1979-08-07 11:47:54.390 ,0,0,0.,24.0,0.,24.0
1979-08-07 11:48:18.390 ,1,1,0.,24.0,0.,24.0
1979-08-07 11:48:42.390 ,1,0,0.,24.0,0.,24.0
1979-08-07 11:49:06.390 ,2,1,0.,24.0,0.,24.0
1979-08-07 11:49:30.390 ,2,0,0.,24.0,0.,24.0
1979-08-07 11:49:54.390 ,3,1,0.,24.0,0.,24.0
1979-08-07 11:50:18.390 ,3,0,0.,24.0,0.,24.0
1979-08-07 11:50:42.390 ,4,1,0.,24.0,0.,24.0
1979-08-07 11:51:06.390 ,4,0,0.,24.0,0.,24.0
1979-08-07 11:51:30.390 ,5,1,0.,24.0,0.,24.0
1979-08-07 11:51:54.390 ,5,0,0.,24.0,0.,24.0
1979-08-07 11:52:18.390 ,6,1,0.,24.0,0.,24.0
1979-08-07 11:52:42.390 ,6,0,0.,24.0,0.,24.0
1979-08-07 11:53:06.390 ,7,1,0.,24.0,0.,24.0
1979-08-07 11:53:30.390 ,7,0,0.,24.0,0.,24.0
1979-08-07 11:53:54.390 ,7,1,0.,24.0,0.,24.0
1979-08-07 11:54:18.390 ,7,0,0.,24.0,0.,24.0
1979-08-07 11:54:42.390 ,6,1,0.,24.0,0.,24.0
1979-08-07 11:55:06.390 ,6,0,0.,24.0,0.,24.0
1979-08-07 11:55:30.390 ,5,1,0.,24.0,0.,24.0
1979-08-07 11:55:54.390 ,5,0,0.,24.0,0.,24.0
1979-08-07 11:56:18.390 ,4,1,0.,24.0,0.,24.0
1979-08-07 11:56:42.390 ,4,0,0.,24.0,0.,24.0
1979-08-07 11:57:06.390 ,3,1,0.,24.0,0.,24.0
1979-08-07 11:57:30.390 ,3,0,0.,24.0,0.,24.0
1979-08-07 11:57:54.390 ,2,1,0.,24.0,0.,24.0
1979-08-07 11:58:18.390 ,2,0,0.,24.0,0.,24.0
1979-08-07 11:58:42.390 ,1,1,0.,24.0,0.,24.0
1979-08-07 11:59:06.390 ,1,0,0.,24.0,0.,24.0
1979-08-07 11:59:30.390 ,0,1,0.,24.0,0.,24.0
1979-08-07 11:59:54.390 ,0,0,0.,24.0,0.,24.0
1979-08-07 12:00:18.390 ,0,1,0.,24.0,0.,24.0
